Regional Weather Roundup
Issued by NWS

Home | Current Version | Previous Version | Text Only | Print | Product List | Glossary On
Versions: 1 2 3 4 5 6 7 8 9 10 11 12 13 14 15 16 17 18 19 20 21 22 23 24 25 26 27 28 29 30 31 32 33 34 35 36 37 38 39 40 41 42 43 44 45 46 47 48 49 50
000
ASUS45 KBOU 291107
RWRCO

WEATHER ROUNDUP FOR COLORADO
NATIONAL WEATHER SERVICE DENVER/BOULDER CO
400 AM MST MON DEC 29 2014

NOTE: "FAIR" INDICATES FEW OR NO CLOUDS BELOW 12000 FEET WITH NO
SIGNIFICANT WEATHER AND/OR OBSTRUCTIONS TO VISIBILITY.

COZ001>005-013-030-031-291200-
...NORTHWEST COLORADO...

CITY           SKY/WX    TMP DP  RH WIND       PRES   REMARKS
CRAIG          CLOUDY    15  12  88 CALM      29.97S
HAYDEN         MOCLDY    14  10  85 CALM      29.94S
MEEKER         CLOUDY    14  10  84 NE5       29.93F WCI   6
MOUNT WERNER   NOT AVBL
STEAMBOAT SPGS CLOUDY    11   9  90 CALM      29.92F
WALDEN         CLEAR     -2  -8  78 SE3       29.89S
$$

COZ006>008-011-291200-
...WEST CENTRAL VALLEYS...

CITY           SKY/WX    TMP DP  RH WIND       PRES   REMARKS
GRAND JUNCTION CLOUDY    21  19  92 CALM      29.99F
MONTROSE       LGT SNOW  20  17  88 SE9       30.00F FOG     WCI   9
EAGLE          CLOUDY    16  14  93 CALM      29.96F
RIFLE          LGT SNOW  20  17  88 S3        29.98F FOG
DELTA          LGT SNOW  23  20  88 NE6       30.00S WCI  16
NUCLA          CLOUDY    23  18  80 SE6       30.00S WCI  16
$$

COZ017>023-064>068-291200-
...SOUTHWEST COLORADO...

CITY           SKY/WX    TMP DP  RH WIND       PRES   REMARKS
DURANGO        MOCLDY     6   3  87 NE5       29.98F WCI  -3
CORTEZ         CLOUDY    11   7  84 CALM      30.00R
PAGOSA SPRINGS CLOUDY   N/A N/A N/A CALM      29.97S
TELLURIDE      NOT AVBL
WOLF CREEK PAS LGT SNOW   1   0  92 MISG      29.82S
$$

COZ009-010-012-014-032>034-037-058>063-291200-
...CENTRAL COLORADO...

CITY           SKY/WX    TMP DP  RH WIND       PRES   REMARKS
ASPEN          LGT SNOW  15  12  88 N3        29.88F FOG
BUENA VISTA    LGT SNOW  14  11  87 CALM      29.89S
COPPER MTN     LGT SNOW   5  -4  66 SW3       29.76F
BERTHOUD PASS  NOT AVBL
COTTONWOOD PAS LGT SNOW  14  10  85 CALM      29.83S VSB 1
GUNNISON       CLOUDY     1 -20  35 CALM      29.94S
KREMMLING      CLOUDY     9   3  78 CALM      29.93F
LEADVILLE      LGT SNOW   7   2  80 NE5       29.81F WCI  -2
MONARCH PASS   CLOUDY     5   1  85 MISG      29.86F
SALIDA         CLOUDY    15   8  73 CALM      29.97S
SUNLIGHT       LGT SNOW N/A N/A N/A CALM      29.82F
WILKERSON PASS FLURRIES   7   3  85 CALM      29.82S
$$

COZ069>075-291200-
...SAN LUIS VALLEY/SANGRE DE CRISTO MOUNTAINS...

CITY           SKY/WX    TMP DP  RH WIND       PRES   REMARKS
ALAMOSA        MOCLDY    -8 -13  78 N8        29.94S WCI -24
LA VETA PASS   NOT AVBL
SAGUACHE       PTCLDY     1   0  92 CALM      29.94F
$$

COZ035-036-038>040-291200-
...NORTHERN COLORADO FRONT RANGE...

CITY           SKY/WX    TMP DP  RH WIND       PRES   REMARKS
DENVER INTL AP CLOUDY    16  10  77 NW6       29.99R WCI   7
DMNS CITY PARK   N/A     18  11  71 W2        30.00S
AURORA         MOCLDY    16  12  83 W6        29.99R WCI   8
FRONT RANGE AP CLOUDY    18  14  86 W9        29.99R WCI   6
ERIE MUNI ARPT   N/A      9   7  91 MISG      30.02R
BOULDER MUN AP MOCLDY    18  10  73 W3        30.01R
CENTENNIAL     CLOUDY    18  12  77 W9        29.98R WCI   7
BROOMFIELD     CLOUDY    21   9  58 NW6       29.99S WCI  14
FORT COLLINS   CLOUDY    18   9  68 NE8       30.03R WCI   7
LONGMONT       CLOUDY     9   5  84 CALM      30.05R
$$

COZ041-046-047-076>085-087-088-291200-
...PIKES PEAK/PALMER DIVIDE AND SOUTHERN FOOTHILLS...

CITY           SKY/WX    TMP DP  RH WIND       PRES   REMARKS
COLO. SPRINGS  PTCLDY    18   6  59 N9        29.94S WCI   7
A. F. ACADEMY  CLOUDY    14   5  68 N12       29.92S WCI   0
ELLICOTT       NOT AVBL
FALCON         CLOUDY    18   7  63 N5        29.93R WCI  11
FORT CARSON    PTCLDY    17   8  66 NW9       29.93S WCI   6
LIMON          PTCLDY    11   6  81 NW6       29.98R WCI   1
MONUMENT HILL  CLOUDY    16   9  73 N10       29.92R WCI   3
TRINIDAD       PTCLDY    11   4  73 W12       29.92S WCI  -3
$$

COZ042>045-048>051-090-091-291200-
...NORTHEAST COLORADO...

CITY           SKY/WX    TMP DP  RH WIND       PRES   REMARKS
GREELEY ARPT   CLOUDY    10   1  67 N8        30.03R WCI  -1
AKRON          CLOUDY    20  13  74 NW10      30.01R WCI   9
BURLINGTON     MOCLDY    16  12  84 NW10      30.01S WCI   4
WRAY           PTCLDY     5   2  87 W6        30.06R WCI  -5
STERLING       PTCLDY     9   5  85 CALM      30.06R
HOLYOKE        PTCLDY    18  14  86 N8        30.06R WCI   7
FORT MORGAN    PTCLDY    14   8  77 N14       30.03R WCI  -1
$$

COZ086-089-092>099-291200-
...SOUTHEAST COLORADO...

CITY           SKY/WX    TMP DP  RH WIND       PRES   REMARKS
PUEBLO         CLEAR     10   5  80 W5        29.96S WCI   2
LA JUNTA       CLEAR     14  10  84 N7        29.97S WCI   4
LAMAR          CLEAR     13   9  84 CALM      29.99S
SPRINGFIELD      N/A     18  11  74 N6        29.95S WCI  10
$$


USA.gov is the U.S. government's official web portal to all federal, state and local government web resources and services.